TimePST,TemperatureF,Dew PointF,Humidity,Sea Level PressureIn,VisibilityMPH,Wind Direction,Wind SpeedMPH,Gust SpeedMPH,PrecipitationIn,Events,Conditions,WindDirDegrees,DateUTC
12:56 AM,8.1,5.0,87,30.65,10.0,Calm,Calm,-,N/A,,Clear,0,2013-01-16 08:56:00
1:56 AM,6.1,3.0,87,30.64,10.0,Calm,Calm,-,N/A,,Clear,0,2013-01-16 09:56:00
2:56 AM,3.9,-0.0,84,30.66,10.0,Calm,Calm,-,N/A,,Clear,0,2013-01-16 10:56:00
3:56 AM,3.0,-0.9,84,30.66,10.0,Calm,Calm,-,N/A,,Clear,0,2013-01-16 11:56:00
4:56 AM,3.0,-0.9,84,30.66,10.0,Calm,Calm,-,N/A,,Clear,0,2013-01-16 12:56:00
5:56 AM,1.0,-2.9,83,30.66,10.0,Calm,Calm,-,N/A,,Clear,0,2013-01-16 13:56:00
6:56 AM,1.0,-2.9,83,30.70,10.0,Calm,Calm,-,N/A,,Clear,0,2013-01-16 14:56:00
7:56 AM,1.0,-2.9,83,30.71,10.0,Calm,Calm,-,N/A,,Clear,0,2013-01-16 15:56:00
8:56 AM,6.1,1.9,83,30.71,10.0,Calm,Calm,-,N/A,,Clear,0,2013-01-16 16:56:00
9:56 AM,19.0,18.0,96,30.68,10.0,Calm,Calm,-,N/A,,Clear,0,2013-01-16 17:56:00
10:56 AM,28.9,21.9,75,30.65,10.0,Calm,Calm,-,N/A,,Clear,0,2013-01-16 18:56:00
11:56 AM,30.9,19.9,64,30.63,10.0,Calm,Calm,-,N/A,,Clear,0,2013-01-16 19:56:00
12:56 PM,30.9,19.0,61,30.62,10.0,Calm,Calm,-,N/A,,Clear,0,2013-01-16 20:56:00
1:56 PM,30.9,19.0,61,30.61,10.0,Calm,Calm,-,N/A,,Clear,0,2013-01-16 21:56:00
2:56 PM,30.9,19.0,61,30.63,10.0,Calm,Calm,-,N/A,,Clear,0,2013-01-16 22:56:00
3:56 PM,27.0,17.1,66,30.64,10.0,Calm,Calm,-,N/A,,Clear,0,2013-01-16 23:56:00
4:56 PM,25.0,15.1,66,30.66,10.0,Calm,Calm,-,N/A,,Clear,0,2013-01-17 00:56:00
5:56 PM,23.0,12.9,65,30.66,10.0,Calm,Calm,-,N/A,,Clear,0,2013-01-17 01:56:00
6:56 PM,19.0,12.9,77,30.69,10.0,Calm,Calm,-,N/A,,Clear,0,2013-01-17 02:56:00
7:56 PM,19.0,12.0,74,30.68,10.0,Calm,Calm,-,N/A,,Clear,0,2013-01-17 03:56:00
8:56 PM,19.9,12.0,71,30.65,10.0,Calm,Calm,-,N/A,,Clear,0,2013-01-17 04:56:00
9:56 PM,19.0,10.9,71,30.63,10.0,Calm,Calm,-,N/A,,Clear,0,2013-01-17 05:56:00
10:56 PM,17.1,10.9,77,30.61,10.0,Calm,Calm,-,N/A,,Clear,0,2013-01-17 06:56:00
11:56 PM,17.1,10.9,77,30.61,10.0,Calm,Calm,-,N/A,,Clear,0,2013-01-17 07:56:00